Theta_e
308 308 308 307 306 306 308 308 308 308 307 307 305 304 303 301 301 300 299 298 297 295 294 294 293 292 291 291 291 292 292 292 295 298 300 302 305 304 307 312 316 320 322 322
306 307 307 305 307 306 306 307 308 307 306 305 304 303 302 301 300 299 298 297 296 295 294 293 292 292 291 291 290 291 291 291 293 296 299 299 300 303 308 309 314 315 317 321
307 306 306 305 303 304 305 308 307 306 306 304 304 303 301 300 299 298 297 296 295 294 293 293 292 291 290 290 290 290 290 291 291 294 297 298 298 299 304 307 309 312 316 314
305 305 305 305 305 304 304 305 305 306 304 303 302 302 300 299 298 298 296 295 294 294 293 292 291 290 289 289 289 289 290 290 290 293 295 297 297 297 299 303 307 308 309 315
306 304 305 307 307 307 306 306 304 305 303 302 302 301 299 298 297 297 296 294 293 293 292 291 290 289 289 288 288 289 289 289 289 290 292 295 297 296 296 298 303 307 307 310
306 304 305 307 306 306 306 306 305 304 302 301 301 299 297 297 297 296 295 293 292 291 291 290 289 288 287 287 288 288 289 288 289 289 289 292 293 296 295 296 298 301 303 304
305 307 306 306 305 305 305 303 302 301 301 300 296 298 297 297 296 295 293 292 291 290 289 289 288 287 286 286 287 287 288 288 288 288 288 289 291 293 295 296 298 299 300 300
304 306 307 304 304 305 304 302 301 301 300 298 297 297 296 296 294 293 292 290 289 289 288 287 286 286 286 285 286 287 287 287 287 287 287 288 289 291 293 294 297 296 296 297
304 305 305 304 304 304 303 302 301 300 299 297 296 295 295 294 293 291 290 289 288 287 286 285 285 284 285 285 285 285 286 286 287 287 287 287 287 287 289 291 292 291 291 293
305 305 305 303 303 303 302 301 300 299 297 296 295 294 293 292 291 290 289 287 286 286 285 284 283 283 284 285 285 284 285 285 285 286 286 286 286 286 286 287 287 288 289 289
305 304 302 301 301 301 300 299 298 297 296 294 294 292 291 291 290 288 287 286 284 283 283 283 283 282 284 284 285 284 284 285 285 285 286 286 286 285 285 285 284 285 286 286
305 303 302 301 301 300 299 298 297 296 294 293 292 290 289 288 287 285 284 283 283 281 282 282 282 283 283 284 284 284 284 285 285 285 285 285 285 285 284 284 284 284 285 286
303 302 301 300 300 299 298 297 296 294 292 290 289 288 287 287 285 284 283 282 281 280 281 282 282 283 283 284 284 284 284 284 284 284 284 284 284 284 284 284 284 284 284 284
301 301 298 299 296 297 297 294 293 291 290 289 288 287 286 285 284 283 282 281 280 280 281 281 282 282 282 283 283 283 283 284 283 283 284 284 284 283 283 282 283 283 283 283
300 301 298 296 295 294 294 293 292 291 289 288 287 285 285 284 283 282 281 280 280 280 281 281 281 281 282 283 283 283 282 282 283 283 283 282 283 283 282 281 281 281 282 282
297 297 295 295 294 294 294 293 291 289 288 287 285 284 283 283 282 281 280 279 280 279 279 280 280 281 281 282 282 282 282 281 281 282 282 282 282 281 281 281 280 280 280 280
296 296 295 295 294 293 291 290 289 288 287 285 283 283 282 282 280 279 279 278 278 278 278 278 279 280 281 282 282 282 282 281 280 280 280 280 281 280 280 280 279 279 279 278
296 295 295 294 292 290 289 288 287 286 285 283 282 282 281 280 280 278 278 278 278 278 278 278 279 279 280 281 281 281 281 280 280 280 279 279 279 279 279 279 278 278 278 278
295 295 294 293 292 290 288 287 285 284 283 282 281 281 280 279 279 278 278 278 278 278 278 278 279 279 279 279 280 280 280 280 279 279 278 278 278 277 277 277 277 277 277 277
293 293 292 291 289 288 286 284 283 283 282 281 280 279 279 278 279 279 278 277 276 276 277 277 278 278 278 278 278 278 278 278 278 277 277 277 276 276 276 276 276 276 276 275
290 290 290 289 287 284 284 283 283 282 280 279 279 279 279 278 278 278 277 277 276 276 276 277 277 277 277 276 276 277 277 277 276 276 276 275 275 275 275 274 274 274 274 274
288 288 286 285 284 283 283 282 281 281 280 279 279 279 278 278 277 277 277 276 276 276 276 276 276 276 275 275 275 275 275 275 275 275 275 275 274 274 273 273 273 273 273 273
285 285 284 284 284 283 282 281 280 280 280 279 279 278 278 277 277 277 277 275 275 275 275 275 275 275 275 275 274 274 274 274 274 274 273 273 273 273 272 272 272 272 272 272
284 283 283 283 282 282 281 280 280 279 279 278 278 278 278 277 277 276 276 275 275 275 275 274 274 274 273 273 273 273 273 273 272 272 272 272 272 271 271 271 271 271 271 271
284 283 282 282 281 281 280 280 279 279 278 278 278 278 277 277 277 276 275 275 274 274 273 273 273 273 273 272 272 271 271 271 271 271 271 271 270 270 270 270 270 270 270 269
283 283 282 282 282 281 280 279 279 279 279 278 277 277 277 276 276 275 275 274 273 273 273 272 272 272 272 271 271 270 270 270 270 270 270 269 269 269 269 269 269 269 269 269
282 282 282 282 282 281 280 280 280 279 279 279 278 277 277 276 275 275 275 274 274 273 273 272 272 272 271 271 270 270 270 269 269 269 269 269 269 269 268 268 268 268 268 269
Wind_Speed
4 9 13 7 8 16 10 10 8 8 7 9 7 6 10 5 5 12 18 23 27 29 33 34 37 43 38 36 41 39 40 43 42 38 38 34 31 30 26 20 7 3 7 21
13 14 13 12 10 11 14 9 11 8 3 8 13 11 9 10 14 16 17 22 25 28 31 31 36 41 36 36 39 37 39 42 42 40 37 36 33 31 27 25 19 10 9 18
6 14 17 14 8 7 5 4 7 9 5 8 5 8 7 8 11 13 15 20 23 27 28 27 33 37 34 34 36 37 38 38 42 41 38 36 33 31 28 25 24 18 12 11
1 4 15 5 11 10 12 9 6 11 9 11 10 13 13 9 10 12 14 17 21 25 26 27 33 35 32 33 34 36 39 36 41 40 37 33 31 30 30 26 22 23 21 13
6 11 10 3 4 5 4 6 9 11 10 15 15 18 12 8 8 9 12 14 19 20 22 27 31 32 31 35 32 35 38 36 36 38 39 34 31 30 27 27 27 23 21 17
4 11 13 5 16 7 2 3 8 19 13 11 4 3 1 7 8 8 10 13 18 20 21 26 29 31 30 34 32 34 36 34 31 32 36 34 30 26 23 22 21 20 21 20
6 1 5 4 6 8 5 5 14 21 17 11 4 7 5 7 7 8 10 13 17 18 19 24 28 27 30 32 30 29 30 31 29 28 31 33 30 25 21 21 20 21 19 20
3 5 8 11 6 3 12 17 20 18 19 20 14 9 7 8 8 9 11 13 16 18 20 23 25 25 28 30 28 27 28 27 28 27 26 29 31 29 25 23 22 23 24 23
7 4 2 9 18 26 23 21 20 20 14 12 12 8 8 8 8 8 10 12 16 18 19 20 23 25 27 28 28 26 27 27 26 27 27 28 32 35 32 29 28 28 28 29
3 6 16 18 23 27 26 22 18 13 13 12 12 8 6 6 4 6 11 15 17 18 19 20 21 21 24 25 25 27 27 28 27 28 28 29 30 34 38 37 32 32 32 31
3 14 21 22 27 30 27 23 22 19 14 13 9 7 3 2 5 10 14 15 15 16 18 19 20 20 22 23 24 26 25 24 28 28 27 27 29 29 29 31 32 30 28 26
4 17 16 21 25 25 25 21 17 13 12 8 4 5 4 6 9 12 15 15 14 15 18 19 20 21 21 21 23 24 26 22 24 25 24 23 24 25 24 22 23 27 22 21
10 31 34 31 27 21 21 16 13 11 8 8 8 8 8 6 8 11 13 15 13 16 17 18 19 19 20 20 22 23 24 20 21 21 22 22 22 22 24 18 19 22 23 21
37 38 27 22 22 17 14 17 14 14 11 8 7 8 9 7 6 10 15 15 12 15 17 18 18 19 20 19 21 22 24 20 19 18 19 19 20 20 21 24 20 22 23 21
17 20 27 24 18 19 19 17 16 14 10 7 6 7 4 2 4 9 11 11 12 15 16 17 17 19 19 18 19 22 23 24 21 19 17 18 18 18 19 22 24 22 21 21
23 26 23 19 20 17 14 12 15 14 8 5 4 5 3 2 6 9 11 11 14 19 17 16 15 17 17 18 19 21 21 22 21 20 21 19 19 21 20 20 22 24 23 23
30 24 23 22 20 19 16 14 13 10 7 4 5 5 3 4 7 10 14 12 10 14 16 16 16 15 15 17 19 20 20 22 23 21 21 22 21 19 20 20 21 21 23 20
21 23 23 21 21 19 15 13 11 8 5 6 7 7 6 6 9 11 15 17 9 13 17 19 15 13 13 15 17 18 19 20 21 22 22 22 21 20 18 18 19 20 20 20
24 25 21 18 16 13 13 11 9 8 10 10 9 10 11 13 11 9 9 14 12 16 19 18 14 12 12 13 15 16 16 17 19 20 20 20 21 20 21 19 18 17 17 19
24 23 20 19 14 11 13 12 11 11 11 10 13 14 15 14 10 8 8 13 13 13 15 15 13 12 12 12 13 14 14 16 18 19 18 18 19 19 18 17 18 18 17 17
20 19 18 16 16 14 12 12 11 13 13 13 13 12 13 13 11 7 8 11 12 12 15 13 13 15 14 13 12 12 13 14 16 17 18 19 18 19 19 19 18 15 15 14
18 19 19 18 17 17 14 13 13 14 14 14 12 10 10 9 7 8 12 11 10 13 14 13 13 13 12 11 13 14 11 12 13 14 15 16 17 18 18 16 17 17 15 16
19 18 18 17 15 16 16 15 14 13 12 11 10 9 10 8 6 3 6 9 8 12 13 13 13 12 12 11 11 12 14 12 11 13 14 14 14 15 16 16 13 15 16 16
20 18 18 17 16 16 17 16 14 13 11 10 10 8 7 3 4 7 8 8 7 9 12 15 14 13 13 13 12 12 14 12 11 10 10 12 13 13 13 14 14 13 14 16
19 18 17 18 16 15 14 14 13 11 11 10 8 7 7 5 1 3 7 8 9 10 11 13 14 13 13 12 12 10 11 13 11 9 10 11 12 14 12 11 12 13 13 14
19 18 17 14 11 10 12 13 12 10 8 6 4 3 3 4 4 6 5 7 8 9 9 12 13 15 15 14 13 13 13 13 13 10 10 10 10 12 13 12 12 10 11 11
16 18 19 13 14 8 9 12 11 9 7 6 4 1 1 1 2 3 3 5 6 8 8 10 11 13 14 15 16 15 15 16 16 15 14 13 13 11 8 10 12 13 12 11
Wind_Direction
306 332 288 211 231 228 227 205 190 214 146 135 148 135 117 69 20 15 6 356 352 352 354 354 349 349 358 0 356 1 7 7 5 4 4 9 13 17 18 23 58 42 41 206
274 267 284 277 223 222 239 226 214 179 178 137 125 112 91 47 25 13 360 353 350 349 354 353 347 347 355 356 357 3 10 8 6 7 7 9 18 19 17 21 33 55 108 173
237 229 266 265 223 231 214 235 200 213 151 122 100 98 88 56 31 7 359 352 350 350 354 349 346 347 355 353 359 6 8 7 7 7 11 10 14 25 24 22 24 29 44 69
150 199 225 230 188 224 218 220 172 117 140 132 121 120 100 60 31 6 359 353 347 348 352 346 343 350 355 353 2 9 7 8 6 8 10 10 15 19 29 26 29 27 24 38
172 217 275 293 169 155 188 257 188 129 124 115 111 115 65 35 32 3 355 351 345 349 353 343 345 351 355 351 2 11 6 7 6 9 10 10 12 18 24 29 29 34 23 14
175 218 240 262 225 168 92 69 31 121 110 104 120 121 87 25 24 4 357 352 346 348 350 346 348 349 355 354 3 9 5 1 5 10 14 15 16 16 23 32 34 32 36 28
207 186 288 198 75 95 159 180 99 108 113 114 96 108 93 35 40 19 360 349 343 346 351 344 343 350 356 358 6 2 1 358 9 15 16 19 20 23 27 35 41 41 36 36
143 195 241 134 140 171 136 116 119 109 110 108 108 99 67 48 36 21 4 354 349 349 347 343 349 354 359 2 3 2 0 0 8 13 16 22 27 27 33 40 42 42 47 48
169 202 47 117 117 128 127 127 127 121 120 120 108 94 61 42 34 18 357 343 337 339 339 344 351 360 1 6 8 8 6 9 12 15 21 24 25 27 33 39 43 45 42 44
95 153 116 105 103 124 123 111 118 114 110 110 103 85 59 41 20 350 339 340 336 337 346 348 355 2 5 9 11 13 11 14 18 21 22 24 29 25 27 32 35 35 38 42
168 129 112 109 108 119 119 113 108 113 116 107 101 89 52 63 352 345 338 339 345 347 354 356 1 6 10 11 14 14 13 16 21 25 27 29 31 28 27 31 38 35 36 36
157 153 127 131 129 127 123 120 124 134 121 109 86 97 40 25 6 3 2 360 2 1 3 6 9 12 12 15 18 17 10 20 21 22 27 31 34 35 30 18 33 43 42 40
112 120 115 123 133 141 134 134 133 117 95 89 77 57 60 40 25 12 7 10 14 10 9 11 14 14 13 20 21 21 9 17 24 20 25 29 35 38 28 44 42 46 46 47
131 132 109 125 118 129 128 114 100 98 102 96 73 61 68 60 24 9 10 14 17 16 13 18 20 19 17 25 21 21 14 21 22 21 29 33 38 42 35 38 46 49 49 48
123 142 133 130 130 115 114 117 127 114 117 98 60 75 110 98 23 2 4 26 24 12 17 21 21 20 23 28 25 24 17 20 24 28 31 36 39 40 43 33 37 42 46 51
127 133 136 129 121 126 130 135 133 131 140 124 91 108 108 31 15 26 32 33 20 14 17 23 22 20 27 28 26 26 21 19 21 27 29 33 39 40 39 38 32 32 39 35
128 135 131 134 136 140 137 136 150 156 156 153 117 127 123 47 46 50 41 29 18 21 19 16 19 22 35 33 29 26 23 22 25 29 31 31 34 37 40 38 35 33 32 31
141 142 144 150 148 145 148 158 163 163 150 118 106 97 83 69 75 63 40 26 38 26 25 19 27 31 39 36 33 28 25 24 24 30 29 31 31 33 35 36 37 36 31 28
148 146 150 156 169 169 158 159 158 142 118 109 101 94 86 89 84 70 44 24 39 29 19 22 32 34 41 32 30 29 28 28 24 24 28 28 30 32 31 32 31 30 27 25
144 149 156 155 157 162 155 146 131 123 115 108 103 98 92 90 82 65 21 28 31 22 15 27 30 34 36 31 24 23 24 23 20 22 23 24 23 23 28 32 33 32 29 25
154 156 157 158 152 145 138 125 126 123 118 115 119 108 99 89 80 77 37 31 32 24 27 27 28 31 31 26 21 21 22 27 26 26 25 24 20 21 24 25 26 26 22 19
153 153 151 148 144 139 131 131 132 130 131 133 129 119 97 87 65 33 31 31 29 30 27 28 27 25 25 22 21 24 23 25 25 18 20 20 21 18 17 20 17 16 16 13
154 152 148 148 145 139 136 139 137 135 133 132 130 120 110 92 68 16 15 34 22 21 23 28 24 21 24 24 21 18 16 21 22 21 18 12 11 7 11 16 16 11 9 5
157 154 150 146 147 147 147 142 140 140 137 131 133 124 118 159 51 15 21 35 34 18 23 28 24 22 25 25 28 21 16 18 16 17 13 9 6 7 9 7 10 2 358 1
163 157 155 153 154 155 155 150 148 142 133 120 126 129 142 189 238 61 39 36 37 30 15 15 22 23 18 19 24 22 5 10 14 5 5 2 356 358 357 357 356 358 1 4
167 164 159 157 156 156 163 151 142 138 129 125 111 83 51 52 47 40 30 21 17 11 10 4 9 14 17 15 13 13 9 6 12 11 2 356 350 353 4 6 1 360 354 357
163 163 159 153 182 172 157 158 153 159 177 200 175 183 297 80 55 46 27 6 2 359 6 5 3 7 9 10 6 5 4 3 2 358 357 352 345 344 346 355 6 351 351 346